Weather in Pindushi

Russia / Republic of Karelia     62°55′00″N   34°34′42″E
temp.,
°C
wind,
m/s
gust,
m/s
humid.,
%
clouds,
%
prec.,
mm/h
press.,
hPa
HPBL,
m
11 may, tue
tue1100:00+9ssw41394100 0.4 1020530
03:00+9ssw4149298 0.4 1020464
06:00+10s41192100 0.0 1020387
09:00+13ssw5138297 0.0 1020490
12:00+18sw6116579 0.0 10211076
15:00+21ssw61053100 0.0 10211472
18:00+19ssw51160100 0.0 10211274
21:00+15ssw4127054 0.0 1022491
12 may, wed
wed1200:00+12ssw4147811 0.0 1023394
03:00+11ssw3138298 0.0 1024291
06:00+12ssw3118042 0.0 1025300
09:00+17ssw36605 0.0 1024505
12:00+21ssw46460 0.0 10241119
15:00+22s46420 0.0 10231429
18:00+20sse46490 0.0 1023660
21:00+14sse24672 0.0 102390
13 may, thu
thu1300:00+12s22700 0.0 102222
03:00+11s22750 0.0 102228
06:00+12s24710 0.0 1021101
09:00+17sse35535 0.0 1021307
12:00+21sse46510 0.0 1020826
15:00+22sse464620 0.0 10181231
18:00+21sse355326 0.0 1017886
21:00+16sse227554 0.0 101618
14 may, fri
fri1400:00+13se118124 0.0 101615
03:00+12ese12885 0.0 101417
06:00+13se278758 0.0 1014233
09:00+15s367896 0.1 1014566
12:00+19ssw57505 0.0 10141523
15:00+21s46380 0.0 10141933
18:00+20s454165 0.0 10131726
21:00+14s2264100 0.0 101340
15 may, sat
sat1500:00+13ssw00646 0.0 101311
03:00+11ene117044 0.0 101310
06:00+12ene246991 0.0 1012144
09:00+16se356698 0.0 1010475
12:00+18sse346027 0.0 10101090
15:00+19ese335994 0.1 10081238
18:00+17e336899 0.0 1007858
21:00+14ne258799 0.7 1005187